User: anonymous   Login
Location: Palomar Mountain Lodge
(33.3110°N, 116.8495°W)
Time: 17:18:22
(UTC-07:00)
Language:

Cosmos 1455 - Orbit

View from above orbital plane
View from above orbital plane
View from above satellite
View from above satellite

Ground track
Ground track

The orbit data is extracted from the following two-line orbital elements,

1 14032U 83037A   19113.17491331  .00000387  00000-0  17354-4 0  9997
2 14032  82.5142 140.2963 0018920  93.4302 266.9096 15.17908577963747
Epoch (UTC): 23 April 2019 04:11:52
Eccentricity: 0.0018920
inclination: 82.5142°
perigee height: 499 km
apogee height: 525 km
right ascension of ascending node: 140.2963°
argument of perigee: 93.4302°
revolutions per day: 15.17908577
mean anomaly at epoch: 266.9096°
orbit number at epoch: 96374

The dashed part of the orbit path shows where the satellite is in the earth's shadow,  

DLR